Location: Middle Street
(51.7167°N, 0.0333°E)
Time: 02:01:39
(UTC+00:00)

Cosmos 1844 Rocket - Pass Details

Date: 20 January 2021
Orbit: 825 x 843 km, 71.0° (Epoch: 24 February)

Event Time Altitude Azimuth Distance (km) Brightness Sun altitude
Rises 19:52:47 0° 231° (SW) 3,393 6.4 -31.2°
Reaches altitude 10° 19:55:20 10° 237° (WSW) 2,461 5.7 -31.6°
Maximum altitude 20:00:44 45° 310° (NW) 1,140 3.6 -32.4°
Enters shadow 20:01:16 44° 326° (NW) 1,160 3.6 -32.5°
